Flag for Australia Weather past 2 weeks in Traralgon, Victoria, Australia

Now
47 °F

Cool.


Feels Like: 41 °F
Forecast: 45 / 60 °F
Wind: 13 mph from Northwest

Location: Latrobe Valley Airport

Current Time: Sep 20, 2014 at 2:19:27 AM

Latest Report: Sep 20, 2014 at 12:00 AM


Visibility: N/A

Pressure: 30.25 "Hg

Humidity: 96%

Dew point: 46 °F

Location of TraralgonLocation

Historic Weather in Traralgon — Graph

°F

Traralgon temperature yesterday

Maximum temperature yesterday: 59 °F (at 3:00 PM)
Minimum temperature yesterday: 44 °F (at 3:00 AM)
Average temperature yesterday: 50 °F

Past Weeks' High & Low Weather Summary

 TemperatureHumidityPressure
High69 °F (Sep 8, 3:00 PM)100% (Sep 5, 2:00 AM)30.45 "Hg (Sep 5, 2:00 AM)
Low35 °F (Sep 5, 5:00 AM)41% (Sep 7, 2:00 PM)29.59 "Hg (Sep 9, 5:00 PM)
Average52 °F83%30.09 "Hg
* Reported Midnight between Sep 4 and Sep 5 — Midnight between Sep 19 and Sep 20, Traralgon, Weather by CustomWeather, © 2014

Note: Actual official high and low records may vary slightly from our data, if they occured in-between our weather recording intervals... More about our weather records

Advertising

Traralgon weather history for previous 24 hours

 ConditionsComfort  
Time TempWeatherWind HumidityBarometerVisibility
12:00 AM
Sep 20
47 °FCool.13 mph96%30.25 "HgN/A
11:00 PM
Sep 19
48 °FCool.13 mph95%30.26 "HgN/A
9:00 PM48 °FPassing clouds.13 mph88%30.26 "HgN/A
8:00 PM48 °FCool.13 mph86%30.24 "HgN/A
6:00 PM52 °FCool.13 mph73%30.22 "HgN/A
5:00 PM54 °FCool.17 mph71%30.20 "HgN/A
3:00 PM59 °FOvercast.16 mph66%30.18 "HgN/A
2:00 PM57 °FCool.14 mph68%30.19 "HgN/A
12:00 PM56 °FOvercast.14 mph89%30.21 "HgN/A
11:00 AM53 °FCool.13 mph87%30.22 "HgN/A
9:00 AM51 °FOvercast.16 mph91%30.23 "HgN/A
8:00 AM49 °FCool.15 mph92%30.23 "HgN/A
6:00 AM45 °FPassing clouds.9 mph97%30.21 "HgN/A
5:00 AM44 °FQuite cool.10 mph98%30.20 "HgN/A
3:00 AM44 °FPassing clouds.12 mph92%30.19 "HgN/A
2:00 AM45 °FCool.14 mph88%30.20 "HgN/A
Weather by CustomWeather, © 2014

See weather overviewHow to use our weather pages